Location: Abyssinia Baptist Church
(32.7840°N, 96.7578°W)
Time: 20:15:35
(UTC+00:00)

SL-4 R/B - Pass Details

Date: 12 July 2022
Orbit: 425 x 653 km, 51.6° (Epoch: 08 August)

Event Time Altitude Azimuth Distance (km) Brightness Sun altitude
Rises 08:44:02 0° 330° (NNW) 2,520 5.7 -26.9°
Reaches altitude 10° 08:46:54 10° 354° (N) 1,687 5.1 -26.6°
Maximum altitude 08:49:11 15° 31° (NNE) 1,432 5.0 -26.3°
Drops below altitude 10° 08:51:33 10° 68° (ENE) 1,766 5.3 -26.0°
Sets 08:54:39 0° 92° (E) 2,713 6.0 -25.6°
